Content
SEND FEEDBACK

Daily
Averages
Monthly
Summary
United States of America

LONG CREEK, OREGON


Home > North America > United States > Oregon
Elevation: 3719 feet     Latitude: 44 43N     Longitude: 119 06W

WEATHER
 
SELECT A DAY
Number of Records: 193,558;   Date Range: 11/29/06 - 12/16/14
 
SHARE

PRINT THIS DATA

[ ← Previous Day ]
WEATHER ALMANAC - JANUARY 31, 2013
[ Next Day → ]
[ °C ]   °F
Weather ElementAverageHighLow
Temperature38.3 °F42.8 °F (12:15 pm)33.8 °F (9:35 pm)
Dewpoint34.6 °F35.6 °F (12:35 am)32 °F (9:15 pm)
Humidity87 %100 % (4:55 am)70 % (2:35 pm)
Barometer30.30 in30.35 in (8:55 am)30.24 in (5:35 pm)
Wind Speed1.4 mph6.9 mph (10:55 am)
Weather ElementAverage
Visibility9.9 mi
Wind DirectionNNE (30 °)

Weather ElementTotal
Precipitation0.01 in
Heating Degree Days26.7 (Base 65)
Averaged from 63 records on January 31, 2013
WEATHER CONDITIONS BREAKOUT
WIND DIRECTION BREAKOUT
WEATHER BY HOUR - JANUARY 31, 2013
[ °C ]   °F
Local TimeTemperatureDewpointHumidityBarometerVisibilityWind DirectionWind SpeedGust SpeedPrecipitationEventsConditions
12:35 AM37.4 °F35.6 °F93 %30.34 in10.0 miCalmOvercast
12:55 AM37.4 °F35.6 °F93 %30.33 in10.0 miCalmOvercast
1:15 AM37.4 °F35.6 °F93 %30.34 in10.0 miCalmOvercast
2:15 AM37.4 °F35.6 °F93 %30.34 in10.0 miCalmOvercast
2:35 AM37.4 °F35.6 °F93 %30.34 in10.0 miCalmDrizzle
2:55 AM37.4 °F35.6 °F93 %30.33 in10.0 miCalm0.01 inLight Drizzle
3:15 AM37.4 °F35.6 °F93 %30.32 in10.0 miSSE (160°)4.6 mphOvercast
3:35 AM37.4 °F33.8 °F87 %30.32 in10.0 miCalmOvercast
4:15 AM35.6 °F33.8 °F93 %30.32 in10.0 miCalmOvercast
4:35 AM37.4 °F35.6 °F93 %30.33 in10.0 miCalmOvercast
4:55 AM35.6 °F35.6 °F100 %30.32 in10.0 miCalmOvercast
5:15 AM35.6 °F35.6 °F100 %30.33 in10.0 miCalmOvercast
5:35 AM35.6 °F33.8 °F93 %30.32 in10.0 miCalmOvercast
5:55 AM35.6 °F35.6 °F100 %30.32 in10.0 miCalmOvercast
6:15 AM35.6 °F33.8 °F93 %30.32 in7.0 miCalmOvercast
6:35 AM35.6 °F33.8 °F93 %30.32 in10.0 miEast (100°)3.5 mphOvercast
6:55 AM35.6 °F33.8 °F93 %30.32 in10.0 miCalmOvercast
7:15 AM35.6 °F33.8 °F93 %30.33 in10.0 miCalmOvercast
7:35 AM35.6 °F33.8 °F93 %30.34 in7.0 miCalmOvercast
7:55 AM35.6 °F33.8 °F93 %30.33 in10.0 miCalmOvercast
8:15 AM35.6 °F33.8 °F93 %30.34 in10.0 miCalmOvercast
8:35 AM35.6 °F33.8 °F93 %30.34 in10.0 miCalmOvercast
8:55 AM35.6 °F33.8 °F93 %30.35 in10.0 miCalmOvercast
9:15 AM35.6 °F35.6 °F100 %30.34 in10.0 miCalmOvercast
9:35 AM37.4 °F35.6 °F93 %30.34 in10.0 miCalmOvercast
10:15 AM37.4 °F35.6 °F93 %30.34 in10.0 miEast (80°)3.5 mphScattered Clouds
10:35 AM39.2 °F35.6 °F87 %30.34 in10.0 miEast (80°)5.8 mphScattered Clouds
10:55 AM39.2 °F35.6 °F87 %30.33 in10.0 miEast (80°)6.9 mphScattered Clouds
11:15 AM39.2 °F35.6 °F87 %30.32 in10.0 miEast (80°)4.6 mphClear
11:35 AM41.0 °F35.6 °F81 %30.31 in10.0 miEast (80°)5.8 mphClear
11:55 AM41.0 °F35.6 °F81 %30.31 in10.0 miENE (70°)6.9 mphClear
12:15 PM42.8 °F35.6 °F76 %30.30 in10.0 miEast (80°)5.8 mphClear
12:35 PM42.8 °F35.6 °F76 %30.29 in10.0 miEast (80°)4.6 mphClear
12:55 PM42.8 °F35.6 °F76 %30.28 in10.0 miENE (70°)4.6 mphClear
1:15 PM42.8 °F35.6 °F76 %30.27 in10.0 miENE (70°)3.5 mphClear
1:35 PM42.8 °F35.6 °F76 %30.27 in10.0 miEast (80°)4.6 mphClear
1:55 PM42.8 °F35.6 °F76 %30.26 in10.0 miEast (100°)4.6 mphClear
2:15 PM42.8 °F35.6 °F76 %30.26 in10.0 miCalmClear
2:35 PM42.8 °F33.8 °F70 %30.25 in10.0 miCalmClear
2:55 PM42.8 °F35.6 °F76 %30.26 in10.0 miCalmClear
3:15 PM42.8 °F35.6 °F76 %30.26 in10.0 miCalmClear
3:35 PM42.8 °F35.6 °F76 %30.26 in10.0 miCalmClear
3:55 PM42.8 °F33.8 °F70 %30.26 in10.0 miCalmClear
4:15 PM42.8 °F33.8 °F70 %30.25 in10.0 miCalmClear
4:35 PM42.8 °F33.8 °F70 %30.25 in10.0 miCalmClear
5:15 PM41.0 °F33.8 °F76 %30.25 in10.0 miCalmClear
5:35 PM41.0 °F33.8 °F76 %30.24 in10.0 miESE (110°)3.5 mphClear
6:15 PM37.4 °F33.8 °F87 %30.24 in10.0 miSE (130°)5.8 mphClear
6:35 PM37.4 °F33.8 °F87 %30.25 in10.0 miEast (100°)4.6 mphClear
6:55 PM37.4 °F33.8 °F87 %30.26 in10.0 miSE (130°)4.6 mphClear
7:15 PM35.6 °F33.8 °F93 %30.26 in10.0 miCalmClear
7:35 PM35.6 °F33.8 °F93 %30.26 in10.0 miCalmClear
7:55 PM37.4 °F33.8 °F87 %30.26 in10.0 miCalmClear
8:15 PM37.4 °F33.8 °F87 %30.27 in10.0 miCalmClear
8:35 PM37.4 °F33.8 °F87 %30.26 in10.0 miSSW (210°)3.5 mphClear
9:15 PM35.6 °F32.0 °F87 %30.27 in10.0 miCalmMostly Cloudy
9:35 PM33.8 °F32.0 °F93 %30.27 in10.0 miCalmOvercast
10:15 PM35.6 °F33.8 °F93 %30.27 in10.0 miCalmOvercast
10:35 PM37.4 °F33.8 °F87 %30.28 in10.0 miCalmOvercast
10:55 PM37.4 °F33.8 °F87 %30.27 in10.0 miCalmOvercast
11:15 PM37.4 °F33.8 °F87 %30.27 in10.0 miCalmOvercast
11:35 PM35.6 °F33.8 °F93 %30.27 in10.0 miCalmOvercast
11:55 PM35.6 °F33.8 °F93 %30.28 in10.0 miCalmOvercast
Hourly data recorded from KGCD, located miles away from Long Creek, Oregon







STORIES FROM OUR PARTNERS